Theta_e
308 308 308 309 309 309 310 310 310 310 310 310 312 314 316 316 317 321 321 316 316 314 324 325 323 325 337 338 334 336 346 346 343 340 339 341 343 347 346 348 347 348 350 353 356
307 308 308 309 309 310 310 310 311 311 311 311 311 313 315 317 324 325 323 315 313 315 326 323 323 330 339 338 336 339 344 342 339 338 338 338 342 345 347 348 349 349 350 356 356
307 308 308 309 309 310 310 311 311 311 312 311 311 312 315 322 333 332 326 316 318 320 323 326 329 330 335 336 335 338 341 336 333 333 335 338 340 343 346 347 347 350 354 358 357
307 307 308 309 309 310 310 311 311 311 312 312 311 312 315 328 333 334 317 316 321 320 325 328 327 326 332 336 330 337 333 331 331 331 332 336 339 343 344 344 345 346 353 358 359
305 306 307 308 309 310 310 311 311 311 312 314 312 312 322 327 326 334 317 318 325 321 325 327 327 329 329 330 330 332 331 331 332 333 335 336 338 341 343 343 345 346 352 356 357
305 305 306 306 308 309 310 310 311 312 316 317 313 313 325 323 327 332 324 322 322 321 326 328 328 328 328 329 330 330 331 333 334 336 336 338 338 341 345 346 344 347 351 353 356
305 305 305 306 306 308 309 310 311 317 320 320 313 317 324 321 328 326 323 322 321 320 327 327 327 328 328 329 329 330 333 335 336 335 334 337 339 341 342 348 349 350 352 353 356
305 305 305 306 306 307 308 309 314 319 323 316 315 324 322 322 326 323 323 322 321 320 326 327 326 327 327 328 329 331 333 336 334 334 335 335 337 341 345 349 350 352 353 356 359
304 305 305 306 306 307 308 310 318 322 319 320 327 329 322 323 326 326 324 322 320 320 324 324 326 328 328 327 326 327 330 330 332 333 331 332 335 341 348 351 351 355 356 358 359
304 305 305 306 306 307 308 315 320 324 323 324 326 327 322 324 325 325 324 320 320 323 326 327 327 328 327 326 324 325 326 328 330 332 329 330 333 335 345 353 353 356 359 360 361
304 305 305 306 306 307 314 320 326 326 321 325 324 320 321 326 324 325 321 323 323 326 328 327 327 327 326 328 329 330 329 328 328 331 330 331 331 334 346 352 355 359 361 361 359
304 305 305 306 306 309 315 321 318 317 321 320 319 320 321 324 328 326 323 327 326 327 327 327 326 326 325 327 328 328 330 329 331 328 329 332 331 333 343 348 351 356 361 361 359
304 305 305 306 307 312 318 317 312 314 322 321 319 320 321 324 328 328 326 328 328 328 327 327 327 325 325 327 327 328 328 329 330 330 330 331 330 331 340 345 349 351 354 358 358
303 305 305 305 310 310 319 314 313 314 324 322 320 320 320 324 324 328 327 329 329 330 328 327 327 326 327 327 328 330 329 330 330 330 329 329 328 333 333 338 344 347 350 355 357
303 304 305 304 310 313 315 311 313 316 324 320 321 319 321 323 325 326 328 329 330 329 329 329 328 327 328 327 328 332 329 330 330 329 329 330 329 331 332 333 341 344 348 348 351
304 305 305 309 310 310 310 312 315 321 322 322 321 320 321 322 325 327 329 328 328 329 328 328 327 328 328 329 329 329 330 331 331 329 329 331 328 329 332 340 341 342 346 348 348
307 305 304 306 312 309 310 317 320 320 318 322 322 322 322 322 326 327 330 330 330 330 331 329 329 328 328 328 328 328 330 331 332 330 330 334 331 331 332 336 342 343 345 348 349
308 305 308 308 310 310 315 320 320 318 318 319 320 321 322 322 324 327 330 331 329 329 328 328 328 327 327 327 327 329 329 330 333 331 330 333 330 335 338 340 343 343 343 347 348
308 310 310 310 310 310 320 319 319 317 319 319 320 322 323 321 322 326 328 329 329 329 329 327 326 328 328 327 328 330 330 329 332 331 331 330 331 331 338 342 345 345 344 346 345
309 314 315 312 311 313 320 318 316 316 317 318 321 322 324 323 323 324 327 326 327 327 328 328 328 326 326 327 328 330 330 331 331 333 335 332 332 332 338 340 346 344 344 346 349
312 318 311 309 311 317 318 317 315 317 316 318 320 322 322 323 324 324 326 323 325 326 327 327 327 327 325 327 327 330 331 331 332 334 334 333 333 332 334 338 347 346 345 356 358
315 317 311 312 315 316 316 317 313 316 316 316 318 320 322 321 322 323 324 324 320 325 327 327 328 328 327 327 327 328 330 333 333 338 333 336 333 331 335 342 348 347 347 355 354
318 315 313 314 315 315 317 315 315 315 316 316 317 319 320 322 324 322 322 321 320 325 328 330 328 330 330 329 328 328 328 331 333 339 335 336 334 337 339 345 346 349 351 356 355
320 316 314 316 318 317 316 315 315 318 318 317 318 318 320 322 322 323 321 320 320 323 332 328 333 331 327 331 330 329 328 330 333 335 334 334 333 334 335 340 351 351 354 354 352
318 320 317 315 318 318 319 318 315 320 318 318 318 318 319 321 322 323 322 321 320 328 329 330 334 331 328 328 329 328 329 330 333 334 336 335 335 335 343 343 346 354 356 352 350
318 320 317 317 318 319 317 320 319 320 321 321 320 322 323 321 321 322 326 325 324 326 330 333 335 334 330 329 331 329 328 331 333 334 333 333 334 341 344 344 346 357 357 353 354
309 310 316 313 318 317 319 321 320 322 322 324 324 325 323 325 326 327 328 329 329 331 329 334 333 334 329 332 332 332 329 328 332 334 332 333 336 344 344 346 348 354 358 355 350
Wind_Speed
11 12 12 13 13 14 14 15 16 16 17 17 16 15 12 10 8 3 6 1 5 8 4 3 3 4 5 2 3 3 5 5 5 2 6 6 3 2 1 7 4 6 4 10 19
11 11 12 13 13 14 15 15 16 16 17 17 17 16 13 12 5 7 4 4 3 10 4 4 5 7 4 2 2 6 5 4 5 6 8 6 4 2 6 6 4 7 7 17 21
13 11 11 13 13 14 15 15 17 17 17 17 17 16 15 8 5 6 3 5 10 8 4 4 5 6 5 4 1 1 6 2 3 5 9 9 6 5 8 5 6 10 13 17 19
13 14 13 13 13 15 15 16 17 18 17 17 16 16 14 3 1 5 4 8 12 5 6 6 5 5 5 4 1 5 2 2 5 8 10 10 8 6 9 6 6 4 15 17 17
15 15 15 14 14 15 16 17 17 19 18 16 12 12 6 6 4 5 8 10 9 3 5 4 5 3 5 2 3 6 1 4 7 9 9 5 7 8 7 4 7 7 15 16 16
17 17 16 16 15 15 15 17 17 19 17 12 8 8 5 4 4 3 8 8 5 6 5 2 2 2 1 1 6 3 7 8 5 3 2 8 3 3 4 4 5 10 12 13 16
17 18 18 17 16 15 16 17 18 17 12 8 4 2 4 5 3 5 6 2 4 3 5 3 3 4 1 4 3 6 10 6 4 5 5 9 13 3 4 1 4 9 9 11 14
18 19 19 18 17 16 16 17 17 11 8 2 2 1 4 2 1 5 5 4 3 4 3 3 3 2 4 4 8 8 7 11 9 5 5 7 7 6 2 2 4 8 8 12 12
18 19 20 19 17 16 16 15 7 2 3 4 0 4 2 1 4 8 6 3 6 5 2 1 4 3 4 7 7 8 12 3 2 3 6 3 10 5 1 2 4 8 9 11 11
18 19 19 18 17 15 14 10 2 1 1 0 2 5 4 3 6 7 6 6 4 9 5 4 4 6 5 7 6 4 7 5 7 2 6 5 7 3 1 4 5 9 9 11 10
19 20 19 18 17 12 7 2 5 5 8 5 2 3 4 5 7 8 8 9 9 10 7 4 7 5 4 1 3 2 5 7 6 3 7 4 8 6 1 5 6 8 9 11 10
19 20 20 18 15 5 4 3 4 5 6 6 9 6 5 1 6 11 11 10 10 10 5 6 8 2 3 4 6 8 7 7 5 2 7 6 10 4 3 4 4 8 10 13 12
19 19 19 17 7 3 2 3 6 3 6 5 5 7 6 9 6 16 16 8 10 10 10 9 7 4 8 8 9 8 8 2 6 7 7 6 14 5 5 4 5 7 10 13 13
19 18 18 16 1 4 3 2 8 5 5 8 6 5 8 7 7 13 19 8 6 10 5 7 7 8 6 6 8 7 2 4 7 7 6 3 7 5 2 3 7 10 11 12 13
19 18 14 12 8 3 1 6 2 4 6 6 6 6 7 13 11 10 18 8 8 7 7 6 9 12 10 8 9 4 1 6 7 10 6 9 7 2 4 3 1 9 11 10 12
20 17 13 5 4 4 5 7 4 5 5 6 6 9 13 14 8 10 14 8 1 6 7 2 2 4 5 5 8 3 7 7 7 9 10 1 5 4 2 3 1 2 8 12 12
22 14 10 5 1 5 6 5 6 6 3 7 6 8 12 13 10 15 18 16 10 8 11 11 13 7 9 10 9 10 10 8 7 7 4 3 6 6 4 2 5 2 8 12 11
20 11 5 6 4 6 6 6 7 0 2 3 2 5 11 13 11 11 16 16 17 8 2 7 8 11 9 14 9 12 14 10 7 8 2 5 5 2 1 2 3 4 6 12 12
13 1 2 1 5 4 8 9 3 3 2 1 3 9 7 10 6 12 14 16 13 15 6 6 5 6 6 1 7 8 9 11 10 7 9 7 3 8 4 4 4 5 10 12 11
5 2 2 5 4 8 9 9 2 0 1 2 6 4 8 12 10 13 14 9 11 12 14 2 4 7 4 4 4 7 2 7 9 8 8 5 3 2 4 5 6 6 10 10 9
2 4 5 5 2 6 10 7 4 4 0 2 3 4 2 5 8 14 13 6 6 12 14 9 7 8 6 10 8 8 10 8 7 5 8 5 5 5 3 1 6 8 12 12 12
4 3 2 2 7 4 9 4 1 8 4 2 1 1 1 2 6 7 9 1 3 8 8 14 7 9 12 4 5 8 10 9 8 11 9 8 4 6 2 2 5 10 13 13 11
2 2 2 4 6 9 3 7 3 8 5 4 4 2 1 3 4 3 5 5 2 6 10 9 7 9 10 10 7 11 12 13 9 7 9 9 8 6 4 4 5 12 14 14 14
3 3 4 4 1 6 7 9 9 2 3 3 2 3 4 5 1 4 8 6 2 1 4 5 5 10 11 7 5 14 13 14 14 11 10 10 10 4 5 5 8 12 15 15 15
2 2 5 5 5 4 7 3 11 7 4 7 6 8 7 7 8 6 4 5 5 5 2 5 7 10 12 9 7 12 7 13 15 17 7 3 3 6 4 3 7 12 16 16 16
3 3 3 2 2 5 4 4 7 5 6 9 10 6 8 9 7 7 2 3 1 4 3 3 6 6 11 7 8 11 13 11 15 10 10 8 7 7 3 2 7 14 17 17 17
4 1 4 4 5 8 7 7 6 3 3 3 1 7 8 2 5 7 7 7 7 4 2 3 6 7 13 3 8 10 13 14 17 14 13 12 4 3 2 1 6 12 16 17 17
Wind_Direction
22 14 13 13 10 7 5 2 359 359 351 347 343 344 339 334 318 283 253 210 152 210 115 149 197 216 224 224 281 266 180 144 119 47 39 86 337 155 355 141 172 158 90 118 149
27 12 7 7 4 2 359 359 353 353 348 343 337 339 333 332 283 244 267 222 205 145 168 173 176 195 193 217 229 264 155 69 35 18 349 350 326 156 215 157 175 156 128 139 152
18 12 7 359 357 355 353 350 345 344 343 338 331 332 334 337 259 66 337 166 144 133 157 139 169 225 211 234 65 349 61 63 46 357 332 326 311 212 238 217 194 190 164 159 163
11 7 359 355 352 346 344 343 338 335 335 327 324 328 332 290 8 42 116 144 144 122 155 152 192 198 223 208 357 255 47 337 329 319 319 321 329 268 243 280 50 156 164 167 172
13 5 358 349 344 340 338 335 331 327 325 319 314 325 333 238 66 11 149 132 152 149 162 157 179 196 209 238 253 252 9 290 297 302 304 297 281 287 279 273 134 144 166 180 172
9 3 357 348 340 333 329 326 325 322 320 312 302 319 298 245 10 110 147 148 168 170 145 172 93 2 222 251 275 4 294 284 293 354 275 296 315 258 102 16 185 180 186 186 170
3 360 354 347 338 329 326 320 323 319 319 309 273 339 269 343 12 142 145 152 152 168 157 102 28 262 309 243 316 282 277 246 203 352 29 319 238 241 357 186 167 180 182 172 165
358 354 349 345 335 326 321 318 321 322 327 279 184 308 279 293 262 166 168 147 140 150 124 116 328 298 279 300 244 265 256 257 93 321 90 308 23 50 349 192 181 143 166 159 162
353 350 345 341 331 323 318 317 311 351 63 108 82 268 198 303 207 188 182 186 149 163 109 328 278 305 231 258 246 219 259 209 276 20 342 299 332 72 323 210 182 151 167 168 162
349 347 344 339 330 322 319 322 243 165 72 339 258 238 195 170 160 168 175 174 164 164 170 212 233 242 217 235 263 279 239 208 261 44 316 289 304 357 290 233 196 160 176 174 174
346 344 341 338 327 321 331 286 213 185 212 281 74 327 145 116 144 179 171 176 171 191 202 193 242 215 6 320 328 280 276 276 264 55 307 336 300 307 306 219 194 167 185 170 177
344 341 338 338 329 323 333 299 33 348 280 219 243 257 235 218 166 171 177 201 191 200 183 203 228 81 178 185 236 251 266 260 260 141 293 301 297 312 201 230 220 180 191 186 182
340 337 334 340 330 35 357 87 330 265 254 164 195 221 197 203 198 180 192 204 212 205 208 260 58 188 196 192 222 229 263 328 306 309 236 281 257 220 158 212 183 207 198 198 196
338 334 333 345 157 338 183 323 325 225 257 143 180 171 185 213 220 184 200 193 207 229 200 248 158 173 197 216 233 225 157 279 282 283 301 314 300 190 209 240 187 205 208 194 196
336 329 327 334 305 242 76 327 315 229 235 130 138 129 174 193 119 186 188 202 227 181 211 113 186 202 224 236 209 75 305 305 302 276 301 215 265 180 212 206 117 205 202 190 194
332 323 316 336 260 268 305 315 217 227 208 138 135 178 169 196 167 140 175 227 322 182 225 233 126 216 224 175 209 116 260 248 264 266 253 253 273 258 335 25 222 222 191 190 190
329 314 291 260 1 317 301 218 215 238 142 150 152 185 189 180 168 173 182 192 194 196 214 215 223 210 231 219 202 242 238 252 234 210 263 92 249 296 325 270 294 259 178 183 176
331 313 275 223 270 312 228 214 231 160 152 97 167 193 198 180 185 183 186 202 220 236 175 217 177 193 183 230 253 216 238 259 275 271 192 162 256 101 197 281 257 195 176 175 177
335 321 192 230 264 233 221 214 227 159 84 171 155 206 167 183 234 186 199 207 203 215 239 192 201 149 185 183 216 165 226 256 265 243 268 263 202 240 240 240 213 181 162 168 164
331 220 55 309 193 216 216 236 180 124 144 206 230 256 182 181 195 199 187 208 205 209 235 118 242 171 165 186 192 269 130 206 224 263 262 160 256 314 193 192 142 161 156 145 144
248 212 29 92 190 211 214 210 199 167 337 240 190 198 165 184 232 197 186 128 192 196 221 218 248 148 196 211 237 185 230 237 305 303 292 221 185 80 261 309 155 162 158 152 155
288 204 134 323 194 213 217 207 191 166 183 158 228 274 195 178 182 200 186 64 120 162 190 210 236 244 245 106 278 266 256 220 245 194 236 297 302 137 197 132 175 162 165 155 149
339 85 189 264 210 203 144 176 211 183 186 189 174 266 206 175 187 199 167 107 123 204 177 170 215 225 210 200 197 220 223 225 249 287 265 267 253 155 188 182 177 172 159 158 149
267 170 152 208 5 276 188 196 172 166 176 223 154 226 212 210 171 163 167 156 19 277 7 228 215 251 277 24 353 203 225 212 222 242 246 227 280 271 225 211 167 179 158 163 157
307 71 356 183 157 177 210 205 208 177 217 216 201 236 221 220 216 205 195 187 175 138 191 220 246 229 256 278 266 273 241 204 220 239 256 324 226 269 73 347 175 176 165 171 164
323 302 181 127 188 204 165 183 199 165 218 180 233 189 210 235 247 203 253 216 57 175 204 195 257 259 259 234 255 248 246 232 213 250 257 281 276 38 51 41 162 171 177 180 170
19 303 286 135 186 221 195 169 178 189 163 23 93 231 208 135 326 313 289 285 285 302 271 251 264 238 254 170 254 241 241 238 227 230 244 247 252 67 293 328 173 184 190 184 177